Le nostre stazioni meteo in Italia

Pubblicità
Il mio iltempo24.it
Capo Bellavista, Italia (16550): Temperatura & dewpoint: 10.12.2017 17:00:00 - 16.12.2017 17:00:00 (CET)Capo Bellavista, Italia (16550): velocità del vento: 10.12.2017 17:00:00 - 16.12.2017 17:00:00 (CET)Capo Bellavista, Italia (16550): direzione del vento: 10.12.2017 17:00:00 - 16.12.2017 17:00:00 (CET)Capo Bellavista, Italia (16550): reduced air pressure: 10.12.2017 17:00:00 - 16.12.2017 17:00:00 (CET)Capo Bellavista, Italia (16550): visibility: 10.12.2017 17:00:00 - 16.12.2017 17:00:00 (CET)Capo Bellavista, Italia (16550): ore di luce: 10.12.2017 17:00:00 - 16.12.2017 17:00:00 (CET)
Data & Tempo tt [°C] td [°C] ff [km/h] ff [kn] dd ppp [hPa] vv [km] sd [min]
16.12.2017 17:00:00 10,8 -2,9 29 16 ONO 1008,8 30 0
16.12.2017 16:00:00 12,0 -4,2 31 17 ONO 1008,3 30 60
16.12.2017 15:00:00 12,2 -4,0 31 17 ONO 1007,9 30 60
16.12.2017 14:00:00 14,2 -4,0 31 17 NO 1007,7 30 60
16.12.2017 13:00:00 13,6 -5,5 35 19 NO 1007,6 30 60
16.12.2017 12:00:00 15,2 0,6 8 4 S 1007,9 30 60
16.12.2017 11:00:00 13,0 -1,0 18 10 ONO 1008,2 30 60
16.12.2017 10:00:00 11,8 1,2 13 7 NNO 1007,6 30 60
16.12.2017 09:00:00 11,6 1,5 13 7 NO 1007,5 20 30
16.12.2017 08:00:00 11,2 1,2 15 8 SO 1007,0 20 0
16.12.2017 07:00:00 11,2 1,2 22 12 O 1005,9 20 -
16.12.2017 06:00:00 11,8 0,6 22 12 ONO 1005,8 20 -
16.12.2017 05:00:00 11,2 3,2 24 13 ONO 1005,9 20 -
16.12.2017 04:00:00 11,2 0,0 5 3 ONO 1006,5 20 -
16.12.2017 03:00:00 11,0 -0,2 5 3 N 1007,1 20 -
16.12.2017 02:00:00 11,0 1,0 11 6 NO 1006,7 20 -
16.12.2017 01:00:00 11,2 1,2 11 6 O 1006,6 20 -
16.12.2017 00:00:00 11,8 1,7 21 11 ONO 1006,5 20 -
15.12.2017 23:00:00 13,0 2,8 16 9 O 1005,5 20 -
15.12.2017 22:00:00 13,0 2,5 21 11 NO 1004,6 20 -
15.12.2017 21:00:00 13,8 4,1 15 8 ONO 1003,4 20 -
15.12.2017 20:00:00 14,2 6,3 18 10 ONO 1003,2 20 -
15.12.2017 19:00:00 14,2 13,9 16 9 NNO 1002,5 20 -
15.12.2017 18:00:00 14,4 10,2 18 10 O 1001,5 20 0
15.12.2017 17:00:00 14,4 11,9 21 11 NO 1000,7 15 0
15.12.2017 16:00:00 16,0 12,9 28 15 SO 1000,4 20 0
15.12.2017 15:00:00 16,0 12,2 41 22 SO 1002,4 20 0
15.12.2017 14:00:00 15,2 12,7 42 23 SO 1002,5 20 0
15.12.2017 13:00:00 16,4 12,0 37 20 SSO 1002,7 20 0
15.12.2017 12:00:00 16,2 11,8 37 20 SO 1005,8 20 0
15.12.2017 11:00:00 15,4 12,0 42 23 SO 1006,0 20 0
15.12.2017 10:00:00 15,2 11,2 37 20 SO 1006,3 20 0
15.12.2017 09:00:00 14,8 13,2 41 22 SO 1006,2 20 12
15.12.2017 08:00:00 14,8 13,2 44 24 SO 1006,9 20 0
15.12.2017 07:00:00 15,2 13,6 31 17 SO 1007,7 25 -
15.12.2017 06:00:00 15,8 11,8 13 7 OSO 1008,6 25 -
15.12.2017 05:00:00 15,8 11,1 21 11 SO 1009,0 25 -
15.12.2017 04:00:00 16,0 11,3 16 9 SO 1009,2 25 -
15.12.2017 03:00:00 16,0 10,0 22 12 NNE - 10 -
15.12.2017 02:00:00 16,2 10,0 16 9 OSO 1010,6 25 -
15.12.2017 01:00:00 16,0 9,4 28 15 OSO 1011,5 25 -
15.12.2017 00:00:00 16,0 10,2 35 19 OSO 1011,7 25 -
14.12.2017 23:00:00 16,0 10,2 26 14 OSO 1012,2 25 -
14.12.2017 22:00:00 16,0 9,4 22 12 O 1012,7 25 -
14.12.2017 21:00:00 16,0 9,4 22 12 O 1012,7 25 -
14.12.2017 20:00:00 16,0 9,4 18 10 OSO 1012,7 25 -
14.12.2017 19:00:00 15,0 9,0 29 16 OSO 1012,8 25 -
14.12.2017 18:00:00 15,8 9,9 42 23 OSO 1013,8 25 0
14.12.2017 17:00:00 15,4 10,6 24 13 SSO 1014,2 25 12
14.12.2017 16:00:00 18,8 11,1 16 9 SSO 1014,5 25 30
14.12.2017 15:00:00 16,4 8,6 29 16 OSO 1014,7 25 12
14.12.2017 14:00:00 16,2 8,0 31 17 ONO 1014,7 25 0
14.12.2017 13:00:00 16,2 7,6 42 23 O 1016,3 25 0
14.12.2017 12:00:00 16,4 7,4 9 5 ONO 1016,8 25 12
14.12.2017 11:00:00 15,4 7,8 35 19 ONO 1016,8 25 6
14.12.2017 10:00:00 15,0 6,9 57 31 ONO 1016,6 25 12
14.12.2017 09:00:00 14,8 6,6 42 23 ONO 1016,8 30 0
14.12.2017 08:00:00 11,6 2,4 8 4 N 1016,9 20 0
14.12.2017 07:00:00 12,6 3,8 11 6 OSO 1016,9 20 -
14.12.2017 06:00:00 13,4 5,1 13 7 O 1017,0 20 -
14.12.2017 05:00:00 11,0 2,1 22 12 ONO 1018,1 20 -
14.12.2017 04:00:00 10,6 4,1 24 13 ONO 1019,1 20 -
14.12.2017 03:00:00 11,4 2,4 13 7 ONO 1019,2 20 -
14.12.2017 02:00:00 11,2 1,2 11 6 ONO 1019,6 20 -
14.12.2017 01:00:00 10,6 1,4 2 1 ONO 1021,0 20 -
14.12.2017 00:00:00 10,2 1,0 5 3 SO 1021,4 20 -
13.12.2017 23:00:00 11,0 1,8 16 9 ONO 1021,2 20 -
13.12.2017 22:00:00 11,0 1,5 9 5 OSO 1021,8 20 -
13.12.2017 21:00:00 10,4 -4,4 9 5 OSO 1022,3 20 -
13.12.2017 20:00:00 10,0 -2,3 13 7 ONO 1022,0 20 -
13.12.2017 19:00:00 10,8 -1,0 18 10 ONO 1021,2 20 -
13.12.2017 18:00:00 12,0 -8,5 13 7 O 1020,4 20 0
13.12.2017 17:00:00 13,4 -7,3 22 12 ONO 1020,8 20 30
13.12.2017 16:00:00 15,6 -6,6 21 11 ONO 1020,2 30 60
13.12.2017 15:00:00 17,4 -3,9 11 6 ONO 1019,9 30 60
13.12.2017 14:00:00 17,2 -0,5 16 9 NO 1019,9 30 60
13.12.2017 13:00:00 16,4 0,9 16 9 ONO 1020,2 30 60
13.12.2017 12:00:00 16,2 4,6 21 11 NO 1021,0 30 60
13.12.2017 11:00:00 14,6 5,7 9 5 ONO 1021,0 30 60
13.12.2017 10:00:00 13,2 5,4 11 6 NO 1020,3 30 60
13.12.2017 09:00:00 13,2 5,5 16 9 ONO 1019,0 30 0
13.12.2017 08:00:00 12,6 5,7 13 7 ONO 1019,0 30 0
13.12.2017 07:00:00 13,0 5,8 18 10 ONO 1018,6 20 -
13.12.2017 06:00:00 13,0 5,8 15 8 O 1017,9 20 -
13.12.2017 05:00:00 13,6 6,0 15 8 O 1017,5 20 -
13.12.2017 04:00:00 13,8 6,3 16 9 O 1017,8 20 -
13.12.2017 03:00:00 14,0 6,5 16 9 O 1017,1 20 -
13.12.2017 02:00:00 14,0 7,0 18 10 O - 10 -
13.12.2017 01:00:00 14,6 7,3 18 10 O 1017,0 20 -
13.12.2017 00:00:00 - - - - - - - -
12.12.2017 23:00:00 14,6 10,1 18 10 SSO 1016,6 20 -
12.12.2017 22:00:00 15,2 8,0 16 9 O 1016,0 20 -
12.12.2017 21:00:00 15,2 8,8 13 7 O 1015,7 20 -
12.12.2017 20:00:00 15,8 9,2 16 9 OSO 1014,9 20 -
12.12.2017 19:00:00 15,8 8,7 16 9 OSO 1014,2 20 -
12.12.2017 18:00:00 16,0 8,6 18 10 O 1013,4 20 -
12.12.2017 17:00:00 16,4 10,2 18 10 O 1012,7 25 0
12.12.2017 16:00:00 16,8 13,9 15 8 SO 1012,3 25 0
12.12.2017 15:00:00 18,2 9,6 29 16 SO 1011,7 25 12
12.12.2017 14:00:00 17,8 11,9 18 10 SSO 1011,6 9 -
12.12.2017 13:00:00 18,0 8,1 22 12 SO 1011,6 9 6
12.12.2017 12:00:00 17,8 10,7 24 13 SO 1011,7 9 54
12.12.2017 11:00:00 17,0 10,6 26 14 SO 1011,7 9 12
12.12.2017 10:00:00 17,0 12,4 18 10 SSO 1010,9 9 0
12.12.2017 09:00:00 17,4 7,7 11 6 SO 1010,0 10 0
12.12.2017 08:00:00 17,6 6,5 15 8 ONO 1009,4 15 0
12.12.2017 07:00:00 16,0 8,3 24 13 SO 1006,8 20 -
12.12.2017 06:00:00 15,8 7,8 24 13 SSO 1006,8 20 -
12.12.2017 05:00:00 17,4 8,3 18 10 O 1006,5 20 -
12.12.2017 04:00:00 15,8 10,8 22 12 SSO 1005,9 20 -
12.12.2017 03:00:00 16,0 11,6 24 13 SO 1005,8 20 -
12.12.2017 02:00:00 16,0 11,6 24 13 SO 1005,7 20 -
12.12.2017 01:00:00 16,0 11,6 24 13 SO 1005,5 20 -
12.12.2017 00:00:00 15,8 11,0 24 13 SSO 1005,4 20 -
11.12.2017 23:00:00 16,0 11,6 22 12 SSO 1005,3 20 -
11.12.2017 22:00:00 16,0 13,5 24 13 SSO 1005,0 20 -
11.12.2017 21:00:00 15,8 12,2 28 15 SO 1004,6 20 -
11.12.2017 20:00:00 15,8 14,2 37 20 SSO 1003,7 20 -
11.12.2017 19:00:00 16,0 11,6 34 18 SO 1003,5 20 -
11.12.2017 18:00:00 15,6 11,4 34 18 SO 1003,2 20 -
11.12.2017 17:00:00 15,8 14,0 37 20 SSO 1002,9 25 0
11.12.2017 16:00:00 15,8 14,0 42 23 SSO 1003,0 30 18
11.12.2017 15:00:00 16,2 14,7 42 23 SSO 1002,6 30 0
11.12.2017 14:00:00 16,2 14,2 44 24 SSO 1002,6 30 0
11.12.2017 13:00:00 16,4 15,1 52 28 S 1002,7 30 0
11.12.2017 12:00:00 16,4 12,5 48 26 SSO 1003,0 30 0
11.12.2017 11:00:00 16,6 12,4 52 28 SSO 1003,7 30 0
11.12.2017 10:00:00 15,6 9,9 44 24 S 1004,6 25 0
11.12.2017 09:00:00 15,0 10,6 50 27 S 1004,6 25 6
11.12.2017 08:00:00 14,8 11,8 42 23 S 1004,4 25 0
11.12.2017 07:00:00 14,8 11,8 41 22 S 1005,6 25 -
11.12.2017 06:00:00 15,0 12,4 44 24 S 1005,7 25 -
11.12.2017 05:00:00 15,0 12,0 41 22 S 1006,7 25 -
11.12.2017 04:00:00 15,0 11,7 41 22 S 1007,7 25 -
11.12.2017 03:00:00 15,0 10,2 26 14 SSO 1007,8 25 -
11.12.2017 02:00:00 15,0 9,8 34 18 SO 1008,6 25 -
11.12.2017 01:00:00 15,0 10,6 34 18 SSO 1008,7 25 -
11.12.2017 00:00:00 14,8 11,4 35 19 SSO 1009,3 25 -
10.12.2017 23:00:00 14,2 10,8 37 20 SSO 1009,9 25 -
10.12.2017 22:00:00 13,8 11,4 31 17 SSO 1010,2 25 -
10.12.2017 21:00:00 13,0 11,3 39 21 SSO 1010,9 25 -
10.12.2017 20:00:00 13,0 11,7 35 19 SSO 1011,9 25 -
10.12.2017 19:00:00 12,0 10,6 31 17 SSO 1012,0 25 -
10.12.2017 18:00:00 11,6 9,5 39 21 SSO 1012,2 25 -
10.12.2017 17:00:00 11,0 9,2 29 16 SO 1013,4 25 0

tt = Temperatura
td = dewpoint
ff = velocità del vento
dd = direzione del vento
ppp = reduced air pressure
vv = visibility
sd = ore di luce

Stazioni seguenti

WeatherPro
AMSI
MeteoEarth